#timestamp,LO_Frequency,Hit,StdDev 
1576706415.8,286047002.5,N
1576706435.7,286046999.8,N
1576706455.5,286047002.8,N
1576706475.4,286047000.0,N
1576706495.2,286046999.8,N
1576706515.0,286047000.0,N
1576706515.9,286047000.0,N
1576706535.8,286047000.3,N
1576706555.6,286046999.8,N
1576706575.4,286046999.9,N
1576706595.3,286047002.4,N
1576706615.1,286047002.2,N
1576706635.9,286047000.3,N
1576706655.7,286047000.9,N
1576706675.5,286046998.4,N
1576706695.4,286046998.9,N
1576706715.2,286046998.7,N
1576706735.1,286047001.1,N
1576706736.0,286047001.1,N
1576706755.8,286046999.5,N
1576706775.6,286046998.4,N
1576706795.5,286046998.2,N
1576706815.3,286047000.7,N
1576706835.1,286047002.2,N
1576706855.9,286047000.5,N
1576706875.7,286047000.2,N
1576706895.6,286047002.3,N
1576706915.4,286047001.5,N
1576706935.2,286047002.8,N
1576706955.1,286047002.5,N
1576706956.0,286047002.5,N
1576706975.8,286047001.3,N
1576706995.6,286047002.0,N
1576707015.5,286047002.0,N
1576707035.3,286047001.3,N
1576707055.2,286047002.1,N
1576707075.9,286047002.3,N
1576707095.7,286046999.7,N
1576707115.6,286047000.3,N
1576707135.4,286047000.1,N
1576707155.2,286047000.6,N
1576707175.1,286047001.0,N
1576707176.0,286047001.0,N
1576707195.8,286046999.9,N
1576707215.7,286047001.0,N
1576707235.5,286047001.0,N
1576707255.3,286047002.8,N
1576707275.2,286047002.6,N
1576707295.0,286047004.4,Y
1576707295.9,286047004.4,P
1576707315.8,286047002.8,N
1576707335.6,286046999.9,N
1576707355.4,286046998.4,N
1576707375.3,286046999.6,N
1576707395.1,286046996.7,N
1576707415.8,286046996.8,N
1576707435.7,286046996.8,N
1576707455.5,286046999.5,N
1576707475.4,286046999.1,N
1576707495.2,286046999.2,N
1576707515.0,286046999.3,N
1576707515.9,286046999.3,N
1576707535.8,286047000.5,N
1576707555.6,286047002.5,N
1576707575.4,286047000.2,N
1576707595.3,286047000.3,N
1576707615.1,286046998.5,N
1576707635.9,286046999.2,N
1576707655.7,286046999.0,N
1576707675.5,286046999.0,N
1576707695.4,286046998.5,N
1576707715.2,286046999.1,N
1576707735.0,286046999.4,N
1576707735.9,286046999.4,N
1576707755.8,286046997.6,N
1576707775.6,286047001.1,N
1576707795.5,286046998.6,N
1576707815.3,286046998.9,N
1576707835.1,286046998.5,N
1576707855.9,286047001.0,N
1576707875.7,286046999.9,N
1576707895.5,286047001.0,N
1576707915.4,286046998.5,N
1576707935.2,286046999.4,N
1576707955.1,286046997.3,N
1576707956.0,286046997.3,N
1576707975.8,286046997.1,N
1576707995.6,286046999.2,N
1576708015.5,286046998.7,N
1576708035.3,286046999.1,N
1576708055.1,286046998.1,N
1576708075.9,286046998.4,N
1576708095.7,286046998.1,N
1576708115.6,286047000.4,N
1576708135.4,286046998.3,N
1576708155.2,286046998.8,N
1576708175.1,286046996.6,Y
1576708176.0,286046996.6,P
1576708195.8,286046998.1,N
1576708215.7,286047000.7,N
1576708235.5,286046998.8,N
1576708255.3,286046999.5,N
1576708275.2,286046999.3,N
1576708295.0,286046998.8,N
1576708295.9,286046998.8,N
1576708315.8,286046998.8,N
1576708335.6,286046999.0,N
1576708355.4,286046998.6,N
1576708375.3,286046998.2,N
1576708395.1,286046999.6,N
1576708415.8,286046998.2,N
1576708435.7,286047002.4,N
1576708455.5,286046999.8,N
1576708475.4,286047000.8,N
1576708495.2,286047000.7,N
1576708515.0,286046999.3,N
1576708515.9,286046999.3,N
1576708535.8,286046998.4,N
1576708555.6,286047001.0,N
1576708575.4,286047000.1,N
1576708595.3,286046999.1,N
1576708615.1,286046998.3,N
1576708635.9,286046998.2,N
1576708655.7,286046996.7,N
1576708675.5,286046999.6,N
1576708695.4,286046997.2,N
1576708715.2,286046996.8,N
1576708735.0,286046997.2,N
1576708735.9,286046997.2,N
1576708755.8,286046997.8,N
1576708775.6,286046997.8,N
1576708795.5,286046994.9,Y
1576708815.3,286046999.0,P
1576708835.1,286046996.9,P
1576708855.9,286046997.8,N
1576708875.7,286046997.6,N
1576708895.6,286046997.4,Y
1576708915.4,286046998.6,P
1576708935.2,286046998.6,P
1576708955.1,286046998.3,P
1576708956.0,286046998.3,Y
1576708975.8,286047002.4,P
1576708995.6,286047004.2,N
1576709015.5,286047003.2,N
1576709035.3,286047002.0,N
1576709055.2,286047002.1,N
1576709075.9,286047001.7,N
1576709095.7,286047002.7,N
1576709115.6,286046999.9,N
1576709135.4,286047002.3,N
1576709155.2,286047001.6,N
1576709175.1,286047003.8,N
1576709176.0,286047003.8,N
1576709195.8,286047003.6,N
1576709215.7,286047005.9,Y
1576709235.5,286047001.3,P
1576709255.3,286047002.9,P
1576709275.2,286047007.3,P
1576709295.0,286047006.9,N
1576709295.9,286047006.9,N
1576709315.7,286047004.9,N
1576709335.6,286047005.9,N
1576709355.4,286047007.2,Y
1576709375.3,286047000.3,P
1576709395.1,286047000.7,N
1576709396.0,286047000.7,N
1576709415.8,286047001.0,N
1576709435.7,286047001.0,N
1576709455.5,286047000.1,N
1576709475.3,286046999.9,N
1576709495.2,286047000.8,N
1576709515.0,286046998.5,N
1576709515.9,286046998.5,N
1576709535.8,286046998.1,N
1576709555.6,286046998.7,N
1576709575.4,286046996.8,N
1576709595.3,286046999.6,N
1576709615.1,286046997.2,N
1576709635.8,286046999.4,N
1576709655.7,286046999.1,N
1576709675.5,286046997.0,N
1576709695.4,286046997.7,N
1576709715.2,286046999.2,N
1576709735.0,286046997.2,N
1576709735.9,286046997.2,N
1576709755.8,286046996.1,N
1576709775.6,286046997.8,N
1576709795.4,286046995.7,N
1576709815.3,286046997.3,N
1576709835.1,286046997.7,N
1576709855.9,286046996.1,N
1576709875.7,286046996.2,N
1576709895.5,286046996.0,N
1576709915.4,286046995.7,N
1576709935.2,286046994.9,Y
1576709955.0,286046999.1,P
1576709956.0,286046999.1,N
1576709975.8,286046998.7,P
1576709995.6,286047001.1,N
